map of ECN home
Great Circle Mapper logo
ECN - Airport
Location
City:  Lefkosa, Cyprus
Near (Alt.):Nicosia
Name:Ercan International Airport
ICAO / IATA:LCEN / ECN

Details
Type:Airport (Aerodrome, Airfield)
Use:International (customs port of entry)
Latitude:3508'56"N (35.148889)
Longitude:3329'59"E (33.499722)
Elevation:402 ft (123 m)
Variation:4.77E (WMM2015 magnetic declination)
0.09 annual change
Runways:1
Longest:9039 × 148 ft (2755 × 45 m)

Time
Time Zone:UTC+2 (DST+3)
Local Time:

Weather
METAR:LCEN 301150Z 15007KT 120V190 9999 FEW025 FEW030TCU SCT080 16/06 Q1013 NOSIG
TAF:LCEN 301040Z 3012/3112 25012KT 9999 SCT030 SCT100
TEMPO 3012/3015 5000 TSRA FEW025CB BKN030 BKN080= TAF LTAC 301040Z 3012/3112 18008KT 9999 SCT035 BKN100
TEMPO 3012/3015 18018KT
TEMPO 3107/3111 19018G28KT -SHRA BKN030 BKN090

Related Locations
Nearby:
Farthest:NTAV: 11651 mi / 18750 km
Raivavae, Tubuai Islands, Austral Islands, PF

Find:

   beyond  
but within

Other Information
Maps:
NOTAMs:
Links:
Sources:

  
flag of Cyprus   

Sectional Chart

Flight Planning
at skyvector.com

Satellite Image

Google Maps Satellite View

 

Copyright © 2004-2015 Karl L. Swartz. All rights reserved.
The Great Circle Mapper name and logo are trademarks of the Great Circle Mapper.
All other trademarks mentioned herein belong to their respective owners.
Please see credits for attibutions and further copyright information.

  Follow gcmap on Facebook Follow gcmap on Twitter

hCard Microformat

Geo Microformat